Location: Alphen
(52.1351°N, 4.6549°E)
Time: 00:55:44
(UTC+00:00)

Spot 2 - Pass Details

Date: 27 January 2021
Orbit: 569 x 774 km, 98.8° (Epoch: 26 February)

Event Time Altitude Azimuth Distance (km) Brightness Sun altitude
Rises 06:11:44 0° 15° (NNE) 2,791 7.4 -11.8°
Reaches altitude 10° 06:13:53 10° 14° (NNE) 1,885 6.5 -11.5°
Maximum altitude 06:17:56 83° 287° (WNW) 586 3.8 -10.9°
Drops below altitude 10° 06:22:01 10° 200° (SSW) 1,901 6.5 -10.3°
Sets 06:24:12 0° 200° (SSW) 2,816 7.4 -10.0°
